This is the latest recevied weather packets stored in our database for station/object EB1BWO-10. If no packets are shown the sender has not sent any weather packets the latest 10 day(s).
| Time | Temp. | Humidity | Pressure | Rain* | Wind** | Luminosity | Snow |
|---|---|---|---|---|---|---|---|
| 1777793271 | 12.22° C | 92% | 948.2 hPa | - | - | - | - |
| 1777792371 | 12.22° C | 92% | 948.2 hPa | - | - | - | - |
| 1777790572 | 13.89° C | 86% | 948 hPa | - | - | - | - |
| 1777789672 | 13.33° C | 89% | 947.7 hPa | - | - | - | - |
| 1777788772 | 10° C | 93% | 948 hPa | - | - | - | - |
| 1777787872 | 10.56° C | 91% | 947.9 hPa | - | - | - | - |
| 1777786972 | 10° C | 93% | 947.7 hPa | - | - | - | - |
| 1777786072 | 10° C | 94% | 947.6 hPa | - | - | - | - |
| 1777785172 | 9.44° C | 92% | 947.7 hPa | - | - | - | - |
| 1777784272 | 10° C | 94% | 947.5 hPa | - | - | - | - |
| 1777783372 | 9.44° C | 93% | 947.7 hPa | - | - | - | - |
| 1777782471 | 10° C | 93% | 947.6 hPa | - | - | - | - |
| 1777781571 | 10° C | 93% | 947.6 hPa | - | - | - | - |
| 1777780671 | 10° C | 93% | 947.9 hPa | - | - | - | - |
| 1777779771 | 10° C | 94% | 948 hPa | - | - | - | - |
| 1777778871 | 10.56° C | 95% | 948 hPa | - | - | - | - |
| 1777777971 | 10° C | 96% | 948.1 hPa | - | - | - | - |
| 1777777073 | 10° C | 95% | 948 hPa | - | - | - | - |
| 1777776171 | 10° C | 96% | 948 hPa | - | - | - | - |
| 1777775271 | 10° C | 94% | 948.2 hPa | - | - | - | - |
| 1777774371 | 10.56° C | 95% | 948.3 hPa | - | - | - | - |
| 1777773471 | 10.56° C | 95% | 948.3 hPa | - | - | - | - |
| 1777772571 | 10.56° C | 94% | 948.3 hPa | - | - | - | - |
| 1777771671 | 10.56° C | 93% | 948.3 hPa | - | - | - | - |
| 1777770771 | 10° C | 94% | 948.5 hPa | - | - | - | - |
* Rain since midnight (hover to see other rain measurements)
** Current wind speed in m/s (hover to see current wind gust speed)